Location: Newark
(27.9675°N, 86.8869°E)
Time: 15:26:01
(UTC+00:00)

A-11 Canister half - Pass Details

Date: 30 October 2019
Orbit: 1527 x 1682 km, 47.3° (Epoch: 19 November)

Event Time Altitude Azimuth Distance (km) Brightness Sun altitude
Rises 11:42:33 0° 255° (WSW) 4,818 15.1 -3.5°
Reaches altitude 10° 11:45:58 10° 262° (W) 3,811 13.0 -4.2°
Maximum altitude 11:54:55 41° 331° (NNW) 2,129 9.9 -6.1°
Drops below altitude 10° 12:03:40 10° 39° (NE) 3,716 10.6 -8.0°
Enters shadow 12:06:15 - 46° (NE) 4,473 10.9 -8.6°
